Date_Time,Julian_Date,Latitude,Longitude,Instrument_Depth,U,V,Speed,Direction
(yyyy-mm-dd hh:mn:ss UTC),(JD),(+ deg. North),(+ deg. East),(m),(cm/s),(cm/s),(cm/s),(deg True)
1984-02-13 17:00:00 UTC,2445744.208333,29.6633,-93.3933,0082,-10.78,7.27,13.0000,304.0000
1984-02-13 17:30:00 UTC,2445744.229167,29.6633,-93.3933,0082,-11.28,4.10,12.0000,290.0000
1984-02-13 18:00:00 UTC,2445744.250000,29.6633,-93.3933,0082,-12.56,3.36,13.0000,285.0000
1984-02-13 18:30:00 UTC,2445744.270833,29.6633,-93.3933,0082,-13.83,2.19,14.0000,279.0000
1984-02-13 19:00:00 UTC,2445744.291667,29.6633,-93.3933,0082,-12.99,0.45,13.0000,272.0000
1984-02-13 19:30:00 UTC,2445744.312500,29.6633,-93.3933,0082,-10.98,0.58,11.0000,273.0000
1984-02-13 20:00:00 UTC,2445744.333333,29.6633,-93.3933,0082,-10.00,0.17,10.0000,271.0000
1984-02-13 20:30:00 UTC,2445744.354167,29.6633,-93.3933,0082,-8.99,-0.31,9.0000,268.0000
1984-02-13 21:00:00 UTC,2445744.375000,29.6633,-93.3933,0082,-7.99,0.42,8.0000,273.0000
1984-02-13 21:30:00 UTC,2445744.395833,29.6633,-93.3933,0082,-8.86,1.56,9.0000,280.0000
1984-02-13 22:00:00 UTC,2445744.416667,29.6633,-93.3933,0082,-8.65,2.48,9.0000,286.0000
1984-02-13 22:30:00 UTC,2445744.437500,29.6633,-93.3933,0082,-6.69,2.05,7.0000,287.0000
1984-02-13 23:00:00 UTC,2445744.458333,29.6633,-93.3933,0082,-5.85,1.35,6.0000,283.0000
1984-02-13 23:30:00 UTC,2445744.479167,29.6633,-93.3933,0082,-5.74,1.75,6.0000,287.0000
1984-02-14 00:00:00 UTC,2445744.500000,29.6633,-93.3933,0082,-5.09,3.18,6.0000,302.0000
1984-02-14 00:30:00 UTC,2445744.520833,29.6633,-93.3933,0082,-4.24,4.24,6.0000,315.0000
1984-02-14 01:00:00 UTC,2445744.541667,29.6633,-93.3933,0082,-3.71,5.94,7.0000,328.0000
1984-02-14 01:30:00 UTC,2445744.562500,29.6633,-93.3933,0082,-3.37,8.34,9.0000,338.0000
1984-02-14 02:00:00 UTC,2445744.583333,29.6633,-93.3933,0082,-2.92,9.56,10.0000,343.0000
1984-02-14 02:30:00 UTC,2445744.604167,29.6633,-93.3933,0082,-1.72,8.83,9.0000,349.0000
1984-02-14 03:00:00 UTC,2445744.625000,29.6633,-93.3933,0082,-0.56,7.98,8.0000,356.0000
1984-02-14 03:30:00 UTC,2445744.645833,29.6633,-93.3933,0082,-0.84,7.96,8.0000,354.0000
1984-02-14 04:00:00 UTC,2445744.666667,29.6633,-93.3933,0082,-1.55,5.80,6.0000,345.0000
1984-02-14 04:30:00 UTC,2445744.687500,29.6633,-93.3933,0082,-1.24,3.80,4.0000,342.0000
1984-02-14 05:00:00 UTC,2445744.708333,29.6633,-93.3933,0082,-0.49,3.97,4.0000,353.0000
1984-02-14 05:30:00 UTC,2445744.729167,29.6633,-93.3933,0082,0.10,3.00,3.0000,2.0000
1984-02-14 06:00:00 UTC,2445744.750000,29.6633,-93.3933,0082,0.16,0.99,1.0000,9.0000
1984-02-14 06:30:00 UTC,2445744.770833,29.6633,-93.3933,0082,-0.92,-0.39,1.0000,247.0000
1984-02-14 07:00:00 UTC,2445744.791667,29.6633,-93.3933,0082,-1.81,-0.85,2.0000,245.0000
1984-02-14 07:30:00 UTC,2445744.812500,29.6633,-93.3933,0082,-2.52,-1.63,3.0000,237.0000
1984-02-14 08:00:00 UTC,2445744.833333,29.6633,-93.3933,0082,-1.46,-1.36,2.0000,227.0000
1984-02-14 08:30:00 UTC,2445744.854167,29.6633,-93.3933,0082,-0.81,-1.83,2.0000,204.0000
1984-02-14 09:00:00 UTC,2445744.875000,29.6633,-93.3933,0082,-0.38,-1.96,2.0000,191.0000
1984-02-14 09:30:00 UTC,2445744.895833,29.6633,-93.3933,0082,-0.10,-0.99,1.0000,186.0000
1984-02-14 10:00:00 UTC,2445744.916667,29.6633,-93.3933,0082,-0.00,0.00,0.0000,301.0000
1984-02-14 10:30:00 UTC,2445744.937500,29.6633,-93.3933,0082,-0.29,0.96,1.0000,343.0000
1984-02-14 11:00:00 UTC,2445744.958333,29.6633,-93.3933,0082,-0.78,2.90,3.0000,345.0000
1984-02-14 11:30:00 UTC,2445744.979167,29.6633,-93.3933,0082,-0.69,3.94,4.0000,350.0000
1984-02-14 12:00:00 UTC,2445745.000000,29.6633,-93.3933,0082,-0.17,5.00,5.0000,358.0000
1984-02-14 12:30:00 UTC,2445745.020833,29.6633,-93.3933,0082,0.42,5.99,6.0000,4.0000
1984-02-14 13:00:00 UTC,2445745.041667,29.6633,-93.3933,0082,0.84,7.96,8.0000,6.0000
1984-02-14 13:30:00 UTC,2445745.062500,29.6633,-93.3933,0082,1.53,10.89,11.0000,8.0000
1984-02-14 14:00:00 UTC,2445745.083333,29.6633,-93.3933,0082,1.74,9.85,10.0000,10.0000
1984-02-14 14:30:00 UTC,2445745.104167,29.6633,-93.3933,0082,0.37,6.99,7.0000,3.0000
1984-02-14 15:00:00 UTC,2445745.125000,29.6633,-93.3933,0082,-1.80,7.79,8.0000,347.0000
1984-02-14 15:30:00 UTC,2445745.145833,29.6633,-93.3933,0082,-1.41,8.89,9.0000,351.0000
1984-02-14 16:00:00 UTC,2445745.166667,29.6633,-93.3933,0082,1.39,9.90,10.0000,8.0000
1984-02-14 16:30:00 UTC,2445745.187500,29.6633,-93.3933,0082,3.25,7.31,8.0000,24.0000
1984-02-14 17:00:00 UTC,2445745.208333,29.6633,-93.3933,0082,2.80,4.15,5.0000,34.0000
1984-02-14 17:30:00 UTC,2445745.229167,29.6633,-93.3933,0082,1.51,1.31,2.0000,49.0000
1984-02-14 18:00:00 UTC,2445745.250000,29.6633,-93.3933,0082,0.00,0.00,0.0000,64.0000
1984-02-14 18:30:00 UTC,2445745.270833,29.6633,-93.3933,0082,0.00,0.00,0.0000,69.0000
1984-02-14 19:00:00 UTC,2445745.291667,29.6633,-93.3933,0082,0.63,-0.78,1.0000,141.0000
1984-02-14 19:30:00 UTC,2445745.312500,29.6633,-93.3933,0082,0.26,-0.97,1.0000,165.0000
1984-02-14 20:00:00 UTC,2445745.333333,29.6633,-93.3933,0082,0.14,-0.99,1.0000,172.0000
1984-02-14 20:30:00 UTC,2445745.354167,29.6633,-93.3933,0082,0.21,-0.98,1.0000,168.0000
1984-02-14 21:00:00 UTC,2445745.375000,29.6633,-93.3933,0082,0.24,-0.97,1.0000,166.0000
1984-02-14 21:30:00 UTC,2445745.395833,29.6633,-93.3933,0082,0.21,-0.98,1.0000,168.0000
1984-02-14 22:00:00 UTC,2445745.416667,29.6633,-93.3933,0082,0.00,0.00,0.0000,66.0000
1984-02-14 22:30:00 UTC,2445745.437500,29.6633,-93.3933,0082,0.00,0.00,0.0000,47.0000
1984-02-14 23:00:00 UTC,2445745.458333,29.6633,-93.3933,0082,0.00,0.00,0.0000,39.0000
1984-02-14 23:30:00 UTC,2445745.479167,29.6633,-93.3933,0082,0.59,0.81,1.0000,36.0000
1984-02-15 00:00:00 UTC,2445745.500000,29.6633,-93.3933,0082,1.31,1.51,2.0000,41.0000
1984-02-15 00:30:00 UTC,2445745.520833,29.6633,-93.3933,0082,2.01,2.23,3.0000,42.0000
1984-02-15 01:00:00 UTC,2445745.541667,29.6633,-93.3933,0082,2.41,3.19,4.0000,37.0000
1984-02-15 01:30:00 UTC,2445745.562500,29.6633,-93.3933,0082,2.41,3.19,4.0000,37.0000
1984-02-15 02:00:00 UTC,2445745.583333,29.6633,-93.3933,0082,2.68,2.97,4.0000,42.0000
1984-02-15 02:30:00 UTC,2445745.604167,29.6633,-93.3933,0082,1.49,1.34,2.0000,48.0000
1984-02-15 03:00:00 UTC,2445745.625000,29.6633,-93.3933,0082,0.77,0.64,1.0000,50.0000
1984-02-15 03:30:00 UTC,2445745.645833,29.6633,-93.3933,0082,1.85,2.36,3.0000,38.0000
1984-02-15 04:00:00 UTC,2445745.666667,29.6633,-93.3933,0082,1.34,1.49,2.0000,42.0000
1984-02-15 04:30:00 UTC,2445745.687500,29.6633,-93.3933,0082,0.54,-0.84,1.0000,147.0000
1984-02-15 05:00:00 UTC,2445745.708333,29.6633,-93.3933,0082,0.16,-3.00,3.0000,177.0000
1984-02-15 05:30:00 UTC,2445745.729167,29.6633,-93.3933,0082,0.42,-5.99,6.0000,176.0000
1984-02-15 06:00:00 UTC,2445745.750000,29.6633,-93.3933,0082,-0.31,-8.99,9.0000,182.0000
1984-02-15 06:30:00 UTC,2445745.770833,29.6633,-93.3933,0082,-1.53,-10.89,11.0000,188.0000
1984-02-15 07:00:00 UTC,2445745.791667,29.6633,-93.3933,0082,-0.96,-10.96,11.0000,185.0000
1984-02-15 07:30:00 UTC,2445745.812500,29.6633,-93.3933,0082,1.22,-9.93,10.0000,173.0000
1984-02-15 08:00:00 UTC,2445745.833333,29.6633,-93.3933,0082,3.09,-9.51,10.0000,162.0000
1984-02-15 08:30:00 UTC,2445745.854167,29.6633,-93.3933,0082,2.59,-9.66,10.0000,165.0000
1984-02-15 09:00:00 UTC,2445745.875000,29.6633,-93.3933,0082,-0.21,-12.00,12.0000,181.0000
1984-02-15 09:30:00 UTC,2445745.895833,29.6633,-93.3933,0082,-3.37,-14.62,15.0000,193.0000
1984-02-15 10:00:00 UTC,2445745.916667,29.6633,-93.3933,0082,-4.56,-13.24,14.0000,199.0000
1984-02-15 10:30:00 UTC,2445745.937500,29.6633,-93.3933,0082,-4.66,-12.14,13.0000,201.0000
1984-02-15 11:00:00 UTC,2445745.958333,29.6633,-93.3933,0082,-5.70,-11.68,13.0000,206.0000
1984-02-15 11:30:00 UTC,2445745.979167,29.6633,-93.3933,0082,-8.82,-12.14,15.0000,216.0000
1984-02-15 12:00:00 UTC,2445746.000000,29.6633,-93.3933,0082,-9.84,-11.32,15.0000,221.0000
1984-02-15 12:30:00 UTC,2445746.020833,29.6633,-93.3933,0082,-8.87,-9.51,13.0000,223.0000
1984-02-15 13:00:00 UTC,2445746.041667,29.6633,-93.3933,0082,-8.55,-6.92,11.0000,231.0000
1984-02-15 13:30:00 UTC,2445746.062500,29.6633,-93.3933,0082,-8.22,-3.66,9.0000,246.0000
1984-02-15 14:00:00 UTC,2445746.083333,29.6633,-93.3933,0082,-7.97,0.70,8.0000,275.0000
1984-02-15 14:30:00 UTC,2445746.104167,29.6633,-93.3933,0082,-10.40,3.58,11.0000,289.0000
1984-02-15 15:00:00 UTC,2445746.125000,29.6633,-93.3933,0082,-12.72,2.70,13.0000,282.0000
1984-02-15 15:30:00 UTC,2445746.145833,29.6633,-93.3933,0082,-13.92,1.46,14.0000,276.0000
1984-02-15 16:00:00 UTC,2445746.166667,29.6633,-93.3933,0082,-13.90,1.71,14.0000,277.0000
1984-02-15 16:30:00 UTC,2445746.187500,29.6633,-93.3933,0082,-13.52,3.62,14.0000,285.0000
1984-02-15 17:00:00 UTC,2445746.208333,29.6633,-93.3933,0082,-14.62,6.51,16.0000,294.0000
1984-02-15 17:30:00 UTC,2445746.229167,29.6633,-93.3933,0082,-15.65,6.64,17.0000,293.0000
1984-02-15 18:00:00 UTC,2445746.250000,29.6633,-93.3933,0082,-13.58,3.39,14.0000,284.0000
1984-02-15 18:30:00 UTC,2445746.270833,29.6633,-93.3933,0082,-11.00,0.19,11.0000,271.0000
1984-02-15 19:00:00 UTC,2445746.291667,29.6633,-93.3933,0082,-9.40,-3.42,10.0000,250.0000
1984-02-15 19:30:00 UTC,2445746.312500,29.6633,-93.3933,0082,-9.23,-5.99,11.0000,237.0000
1984-02-15 20:00:00 UTC,2445746.333333,29.6633,-93.3933,0082,-10.65,-7.46,13.0000,235.0000
1984-02-15 20:30:00 UTC,2445746.354167,29.6633,-93.3933,0082,-11.87,-7.42,14.0000,238.0000
1984-02-15 21:00:00 UTC,2445746.375000,29.6633,-93.3933,0082,-13.37,-6.81,15.0000,243.0000
1984-02-15 21:30:00 UTC,2445746.395833,29.6633,-93.3933,0082,-13.07,-5.02,14.0000,249.0000
1984-02-15 22:00:00 UTC,2445746.416667,29.6633,-93.3933,0082,-10.63,-2.85,11.0000,255.0000
1984-02-15 22:30:00 UTC,2445746.437500,29.6633,-93.3933,0082,-6.49,-2.62,7.0000,248.0000
1984-02-15 23:00:00 UTC,2445746.458333,29.6633,-93.3933,0082,-3.89,-3.15,5.0000,231.0000
1984-02-15 23:30:00 UTC,2445746.479167,29.6633,-93.3933,0082,-2.73,-2.93,4.0000,223.0000
1984-02-16 00:00:00 UTC,2445746.500000,29.6633,-93.3933,0082,-3.11,-2.52,4.0000,231.0000
1984-02-16 00:30:00 UTC,2445746.520833,29.6633,-93.3933,0082,-3.24,-2.35,4.0000,234.0000
1984-02-16 01:00:00 UTC,2445746.541667,29.6633,-93.3933,0082,-1.66,-1.12,2.0000,236.0000
1984-02-16 01:30:00 UTC,2445746.562500,29.6633,-93.3933,0082,-1.62,-1.18,2.0000,234.0000
1984-02-16 02:00:00 UTC,2445746.583333,29.6633,-93.3933,0082,-2.49,-1.68,3.0000,236.0000
1984-02-16 02:30:00 UTC,2445746.604167,29.6633,-93.3933,0082,-4.78,-1.46,5.0000,253.0000
1984-02-16 03:00:00 UTC,2445746.625000,29.6633,-93.3933,0082,-7.98,-0.56,8.0000,266.0000
1984-02-16 03:30:00 UTC,2445746.645833,29.6633,-93.3933,0082,-10.86,1.72,11.0000,279.0000
1984-02-16 04:00:00 UTC,2445746.666667,29.6633,-93.3933,0082,-13.07,5.02,14.0000,291.0000
1984-02-16 04:30:00 UTC,2445746.687500,29.6633,-93.3933,0082,-14.38,7.01,16.0000,296.0000
1984-02-16 05:00:00 UTC,2445746.708333,29.6633,-93.3933,0082,-14.50,6.76,16.0000,295.0000
1984-02-16 05:30:00 UTC,2445746.729167,29.6633,-93.3933,0082,-12.69,5.92,14.0000,295.0000
1984-02-16 06:00:00 UTC,2445746.750000,29.6633,-93.3933,0082,-12.69,5.92,14.0000,295.0000
1984-02-16 06:30:00 UTC,2445746.770833,29.6633,-93.3933,0082,-14.00,5.38,15.0000,291.0000
1984-02-16 07:00:00 UTC,2445746.791667,29.6633,-93.3933,0082,-14.34,4.39,15.0000,287.0000
1984-02-16 07:30:00 UTC,2445746.812500,29.6633,-93.3933,0082,-13.52,3.62,14.0000,285.0000
1984-02-16 08:00:00 UTC,2445746.833333,29.6633,-93.3933,0082,-10.80,2.10,11.0000,281.0000
1984-02-16 08:30:00 UTC,2445746.854167,29.6633,-93.3933,0082,-6.96,0.73,7.0000,276.0000
1984-02-16 09:00:00 UTC,2445746.875000,29.6633,-93.3933,0082,-3.95,0.63,4.0000,279.0000
1984-02-16 09:30:00 UTC,2445746.895833,29.6633,-93.3933,0082,-1.98,0.28,2.0000,278.0000
1984-02-16 10:00:00 UTC,2445746.916667,29.6633,-93.3933,0082,-1.70,-1.06,2.0000,238.0000
1984-02-16 10:30:00 UTC,2445746.937500,29.6633,-93.3933,0082,-3.15,-2.46,4.0000,232.0000
1984-02-16 11:00:00 UTC,2445746.958333,29.6633,-93.3933,0082,-2.97,-2.68,4.0000,228.0000
1984-02-16 11:30:00 UTC,2445746.979167,29.6633,-93.3933,0082,-1.85,-2.36,3.0000,218.0000
1984-02-16 12:00:00 UTC,2445747.000000,29.6633,-93.3933,0082,-2.12,-2.12,3.0000,225.0000
1984-02-16 12:30:00 UTC,2445747.020833,29.6633,-93.3933,0082,-3.53,-1.88,4.0000,242.0000
1984-02-16 13:00:00 UTC,2445747.041667,29.6633,-93.3933,0082,-4.87,-1.12,5.0000,257.0000
1984-02-16 13:30:00 UTC,2445747.062500,29.6633,-93.3933,0082,-4.94,0.78,5.0000,279.0000
1984-02-16 14:00:00 UTC,2445747.083333,29.6633,-93.3933,0082,-6.44,2.74,7.0000,293.0000
1984-02-16 14:30:00 UTC,2445747.104167,29.6633,-93.3933,0082,-6.63,4.47,8.0000,304.0000
1984-02-16 15:00:00 UTC,2445747.125000,29.6633,-93.3933,0082,-5.75,5.56,8.0000,314.0000
1984-02-16 15:30:00 UTC,2445747.145833,29.6633,-93.3933,0082,-6.14,6.58,9.0000,317.0000
1984-02-16 16:00:00 UTC,2445747.166667,29.6633,-93.3933,0082,-5.35,5.95,8.0000,318.0000
1984-02-16 16:30:00 UTC,2445747.187500,29.6633,-93.3933,0082,-6.36,6.36,9.0000,315.0000
1984-02-16 17:00:00 UTC,2445747.208333,29.6633,-93.3933,0082,-6.79,5.90,9.0000,311.0000
1984-02-16 17:30:00 UTC,2445747.229167,29.6633,-93.3933,0082,-6.79,5.90,9.0000,311.0000
1984-02-16 18:00:00 UTC,2445747.250000,29.6633,-93.3933,0082,-6.30,4.93,8.0000,308.0000
1984-02-16 18:30:00 UTC,2445747.270833,29.6633,-93.3933,0082,-6.24,3.18,7.0000,297.0000
1984-02-16 19:00:00 UTC,2445747.291667,29.6633,-93.3933,0082,-7.79,1.80,8.0000,283.0000
1984-02-16 19:30:00 UTC,2445747.312500,29.6633,-93.3933,0082,-9.99,-0.35,10.0000,268.0000
1984-02-16 20:00:00 UTC,2445747.333333,29.6633,-93.3933,0082,-12.50,-3.58,13.0000,254.0000
1984-02-16 20:30:00 UTC,2445747.354167,29.6633,-93.3933,0082,-12.89,-5.47,14.0000,247.0000
1984-02-16 21:00:00 UTC,2445747.375000,29.6633,-93.3933,0082,-10.69,-5.45,12.0000,243.0000
1984-02-16 21:30:00 UTC,2445747.395833,29.6633,-93.3933,0082,-7.99,-6.02,10.0000,233.0000
1984-02-16 22:00:00 UTC,2445747.416667,29.6633,-93.3933,0082,-4.59,-6.55,8.0000,215.0000
1984-02-16 22:30:00 UTC,2445747.437500,29.6633,-93.3933,0082,-2.60,-7.56,8.0000,199.0000
1984-02-16 23:00:00 UTC,2445747.458333,29.6633,-93.3933,0082,-2.93,-8.51,9.0000,199.0000
1984-02-16 23:30:00 UTC,2445747.479167,29.6633,-93.3933,0082,-3.38,-7.25,8.0000,205.0000
1984-02-17 00:00:00 UTC,2445747.500000,29.6633,-93.3933,0082,-2.63,-5.39,6.0000,206.0000
1984-02-17 00:30:00 UTC,2445747.520833,29.6633,-93.3933,0082,-1.43,-3.73,4.0000,201.0000
1984-02-17 01:00:00 UTC,2445747.541667,29.6633,-93.3933,0082,-0.22,-0.97,1.0000,193.0000
1984-02-17 01:30:00 UTC,2445747.562500,29.6633,-93.3933,0082,0.00,-0.00,0.0000,94.0000
1984-02-17 02:00:00 UTC,2445747.583333,29.6633,-93.3933,0082,0.69,0.72,1.0000,44.0000
1984-02-17 02:30:00 UTC,2445747.604167,29.6633,-93.3933,0082,0.69,0.72,1.0000,44.0000
1984-02-17 03:00:00 UTC,2445747.625000,29.6633,-93.3933,0082,0.68,0.73,1.0000,43.0000
1984-02-17 03:30:00 UTC,2445747.645833,29.6633,-93.3933,0082,0.66,0.75,1.0000,41.0000
1984-02-17 04:00:00 UTC,2445747.666667,29.6633,-93.3933,0082,0.60,0.80,1.0000,37.0000
1984-02-17 04:30:00 UTC,2445747.687500,29.6633,-93.3933,0082,0.39,0.92,1.0000,23.0000
1984-02-17 05:00:00 UTC,2445747.708333,29.6633,-93.3933,0082,-0.00,0.00,0.0000,354.0000
1984-02-17 05:30:00 UTC,2445747.729167,29.6633,-93.3933,0082,-0.00,0.00,0.0000,321.0000
1984-02-17 06:00:00 UTC,2445747.750000,29.6633,-93.3933,0082,-0.00,0.00,0.0000,311.0000
1984-02-17 06:30:00 UTC,2445747.770833,29.6633,-93.3933,0082,-0.00,0.00,0.0000,336.0000
1984-02-17 07:00:00 UTC,2445747.791667,29.6633,-93.3933,0082,-0.33,0.95,1.0000,341.0000
1984-02-17 07:30:00 UTC,2445747.812500,29.6633,-93.3933,0082,-0.00,0.00,0.0000,342.0000
1984-02-17 08:00:00 UTC,2445747.833333,29.6633,-93.3933,0082,-0.05,-1.00,1.0000,183.0000
1984-02-17 08:30:00 UTC,2445747.854167,29.6633,-93.3933,0082,0.21,-1.99,2.0000,174.0000
1984-02-17 09:00:00 UTC,2445747.875000,29.6633,-93.3933,0082,1.71,-4.70,5.0000,160.0000
1984-02-17 09:30:00 UTC,2445747.895833,29.6633,-93.3933,0082,3.53,-4.85,6.0000,144.0000
1984-02-17 10:00:00 UTC,2445747.916667,29.6633,-93.3933,0082,5.85,-5.46,8.0000,133.0000
1984-02-17 10:30:00 UTC,2445747.937500,29.6633,-93.3933,0082,6.89,-5.79,9.0000,130.0000
1984-02-17 11:00:00 UTC,2445747.958333,29.6633,-93.3933,0082,7.09,-5.54,9.0000,128.0000
1984-02-17 11:30:00 UTC,2445747.979167,29.6633,-93.3933,0082,7.28,-5.29,9.0000,126.0000
1984-02-17 12:00:00 UTC,2445748.000000,29.6633,-93.3933,0082,6.93,-4.00,8.0000,120.0000
1984-02-17 12:30:00 UTC,2445748.020833,29.6633,-93.3933,0082,7.36,-3.13,8.0000,113.0000
1984-02-17 13:00:00 UTC,2445748.041667,29.6633,-93.3933,0082,8.51,-2.93,9.0000,109.0000
1984-02-17 13:30:00 UTC,2445748.062500,29.6633,-93.3933,0082,8.61,-2.63,9.0000,107.0000
1984-02-17 14:00:00 UTC,2445748.083333,29.6633,-93.3933,0082,8.61,-2.63,9.0000,107.0000
1984-02-17 14:30:00 UTC,2445748.104167,29.6633,-93.3933,0082,8.80,-1.87,9.0000,102.0000
1984-02-17 15:00:00 UTC,2445748.125000,29.6633,-93.3933,0082,8.99,-0.47,9.0000,93.0000
1984-02-17 15:30:00 UTC,2445748.145833,29.6633,-93.3933,0082,7.90,1.25,8.0000,81.0000
1984-02-17 16:00:00 UTC,2445748.166667,29.6633,-93.3933,0082,6.24,3.18,7.0000,63.0000
1984-02-17 16:30:00 UTC,2445748.187500,29.6633,-93.3933,0082,6.55,4.59,8.0000,55.0000
1984-02-17 17:00:00 UTC,2445748.208333,29.6633,-93.3933,0082,7.71,4.64,9.0000,59.0000
1984-02-17 17:30:00 UTC,2445748.229167,29.6633,-93.3933,0082,8.09,3.95,9.0000,64.0000
1984-02-17 18:00:00 UTC,2445748.250000,29.6633,-93.3933,0082,6.87,1.34,7.0000,79.0000
1984-02-17 18:30:00 UTC,2445748.270833,29.6633,-93.3933,0082,6.89,-1.22,7.0000,100.0000
1984-02-17 19:00:00 UTC,2445748.291667,29.6633,-93.3933,0082,5.60,-2.15,6.0000,111.0000
1984-02-17 19:30:00 UTC,2445748.312500,29.6633,-93.3933,0082,2.82,-1.03,3.0000,110.0000
1984-02-17 20:00:00 UTC,2445748.333333,29.6633,-93.3933,0082,0.54,0.84,1.0000,33.0000
1984-02-17 20:30:00 UTC,2445748.354167,29.6633,-93.3933,0082,-1.18,1.62,2.0000,324.0000
1984-02-17 21:00:00 UTC,2445748.375000,29.6633,-93.3933,0082,-1.41,1.41,2.0000,315.0000
1984-02-17 21:30:00 UTC,2445748.395833,29.6633,-93.3933,0082,-0.73,0.68,1.0000,313.0000
1984-02-17 22:00:00 UTC,2445748.416667,29.6633,-93.3933,0082,0.00,0.00,0.0000,37.0000
1984-02-17 22:30:00 UTC,2445748.437500,29.6633,-93.3933,0082,0.99,0.12,1.0000,83.0000
1984-02-17 23:00:00 UTC,2445748.458333,29.6633,-93.3933,0082,1.94,-0.48,2.0000,104.0000
1984-02-17 23:30:00 UTC,2445748.479167,29.6633,-93.3933,0082,3.32,-2.24,4.0000,124.0000
1984-02-18 00:00:00 UTC,2445748.500000,29.6633,-93.3933,0082,3.28,-3.77,5.0000,139.0000
1984-02-18 00:30:00 UTC,2445748.520833,29.6633,-93.3933,0082,3.27,-5.03,6.0000,147.0000
1984-02-18 01:00:00 UTC,2445748.541667,29.6633,-93.3933,0082,3.50,-6.06,7.0000,150.0000
1984-02-18 01:30:00 UTC,2445748.562500,29.6633,-93.3933,0082,3.07,-6.29,7.0000,154.0000
1984-02-18 02:00:00 UTC,2445748.583333,29.6633,-93.3933,0082,2.51,-6.54,7.0000,159.0000
1984-02-18 02:30:00 UTC,2445748.604167,29.6633,-93.3933,0082,2.85,-6.39,7.0000,156.0000
1984-02-18 03:00:00 UTC,2445748.625000,29.6633,-93.3933,0082,3.00,-5.20,6.0000,150.0000
1984-02-18 03:30:00 UTC,2445748.645833,29.6633,-93.3933,0082,2.19,-4.49,5.0000,154.0000
1984-02-18 04:00:00 UTC,2445748.666667,29.6633,-93.3933,0082,0.42,-1.96,2.0000,168.0000
1984-02-18 04:30:00 UTC,2445748.687500,29.6633,-93.3933,0082,-0.68,-0.73,1.0000,223.0000
1984-02-18 05:00:00 UTC,2445748.708333,29.6633,-93.3933,0082,-0.99,0.12,1.0000,277.0000
1984-02-18 05:30:00 UTC,2445748.729167,29.6633,-93.3933,0082,-4.49,2.19,5.0000,296.0000
1984-02-18 06:00:00 UTC,2445748.750000,29.6633,-93.3933,0082,-6.99,5.66,9.0000,309.0000
1984-02-18 06:30:00 UTC,2445748.770833,29.6633,-93.3933,0082,-6.69,6.02,9.0000,312.0000
1984-02-18 07:00:00 UTC,2445748.791667,29.6633,-93.3933,0082,-3.99,3.01,5.0000,307.0000
1984-02-18 07:30:00 UTC,2445748.812500,29.6633,-93.3933,0082,-2.97,0.42,3.0000,278.0000
1984-02-18 08:00:00 UTC,2445748.833333,29.6633,-93.3933,0082,-4.57,-2.03,5.0000,246.0000
1984-02-18 08:30:00 UTC,2445748.854167,29.6633,-93.3933,0082,-4.91,-3.44,6.0000,235.0000
1984-02-18 09:00:00 UTC,2445748.875000,29.6633,-93.3933,0082,-2.78,-1.12,3.0000,248.0000
1984-02-18 09:30:00 UTC,2445748.895833,29.6633,-93.3933,0082,-0.72,0.69,1.0000,314.0000
1984-02-18 10:00:00 UTC,2445748.916667,29.6633,-93.3933,0082,1.62,1.18,2.0000,54.0000
1984-02-18 10:30:00 UTC,2445748.937500,29.6633,-93.3933,0082,3.73,1.43,4.0000,69.0000
1984-02-18 11:00:00 UTC,2445748.958333,29.6633,-93.3933,0082,4.67,1.79,5.0000,69.0000
1984-02-18 11:30:00 UTC,2445748.979167,29.6633,-93.3933,0082,4.95,0.70,5.0000,82.0000
1984-02-18 12:00:00 UTC,2445749.000000,29.6633,-93.3933,0082,7.00,0.12,7.0000,89.0000
1984-02-18 12:30:00 UTC,2445749.020833,29.6633,-93.3933,0082,10.89,1.53,11.0000,82.0000
1984-02-18 13:00:00 UTC,2445749.041667,29.6633,-93.3933,0082,15.65,3.33,16.0000,78.0000
1984-02-18 13:30:00 UTC,2445749.062500,29.6633,-93.3933,0082,18.65,3.63,19.0000,79.0000
1984-02-18 14:00:00 UTC,2445749.083333,29.6633,-93.3933,0082,18.71,3.30,19.0000,80.0000
1984-02-18 14:30:00 UTC,2445749.104167,29.6633,-93.3933,0082,18.77,2.97,19.0000,81.0000
1984-02-18 15:00:00 UTC,2445749.125000,29.6633,-93.3933,0082,19.63,3.82,20.0000,79.0000
1984-02-18 15:30:00 UTC,2445749.145833,29.6633,-93.3933,0082,18.44,4.60,19.0000,76.0000
1984-02-18 16:00:00 UTC,2445749.166667,29.6633,-93.3933,0082,17.47,4.35,18.0000,76.0000
1984-02-18 16:30:00 UTC,2445749.187500,29.6633,-93.3933,0082,14.55,3.63,15.0000,76.0000
1984-02-18 17:00:00 UTC,2445749.208333,29.6633,-93.3933,0082,10.52,3.22,11.0000,73.0000
1984-02-18 17:30:00 UTC,2445749.229167,29.6633,-93.3933,0082,7.25,3.38,8.0000,65.0000
1984-02-18 18:00:00 UTC,2445749.250000,29.6633,-93.3933,0082,4.66,3.78,6.0000,51.0000
1984-02-18 18:30:00 UTC,2445749.270833,29.6633,-93.3933,0082,2.35,3.24,4.0000,36.0000
1984-02-18 19:00:00 UTC,2445749.291667,29.6633,-93.3933,0082,0.98,2.84,3.0000,19.0000
1984-02-18 19:30:00 UTC,2445749.312500,29.6633,-93.3933,0082,0.88,2.87,3.0000,17.0000
1984-02-18 20:00:00 UTC,2445749.333333,29.6633,-93.3933,0082,0.85,1.81,2.0000,25.0000
1984-02-18 20:30:00 UTC,2445749.354167,29.6633,-93.3933,0082,-0.75,1.85,2.0000,338.0000
1984-02-18 21:00:00 UTC,2445749.375000,29.6633,-93.3933,0082,-2.87,4.10,5.0000,325.0000
1984-02-18 21:30:00 UTC,2445749.395833,29.6633,-93.3933,0082,-3.35,2.18,4.0000,303.0000
1984-02-18 22:00:00 UTC,2445749.416667,29.6633,-93.3933,0082,-3.72,-3.35,5.0000,228.0000
1984-02-18 22:30:00 UTC,2445749.437500,29.6633,-93.3933,0082,-5.03,-7.46,9.0000,214.0000
1984-02-18 23:00:00 UTC,2445749.458333,29.6633,-93.3933,0082,-2.92,-9.56,10.0000,197.0000
1984-02-18 23:30:00 UTC,2445749.479167,29.6633,-93.3933,0082,1.36,-12.93,13.0000,174.0000
1984-02-19 00:00:00 UTC,2445749.500000,29.6633,-93.3933,0082,3.13,-17.73,18.0000,170.0000
1984-02-19 00:30:00 UTC,2445749.520833,29.6633,-93.3933,0082,1.46,-20.95,21.0000,176.0000
1984-02-19 01:00:00 UTC,2445749.541667,29.6633,-93.3933,0082,-0.73,-20.99,21.0000,182.0000
1984-02-19 01:30:00 UTC,2445749.562500,29.6633,-93.3933,0082,-3.29,-20.74,21.0000,189.0000
1984-02-19 02:00:00 UTC,2445749.583333,29.6633,-93.3933,0082,-6.43,-21.04,22.0000,197.0000
1984-02-19 02:30:00 UTC,2445749.604167,29.6633,-93.3933,0082,-9.64,-19.77,22.0000,206.0000
1984-02-19 03:00:00 UTC,2445749.625000,29.6633,-93.3933,0082,-11.76,-16.18,20.0000,216.0000
1984-02-19 03:30:00 UTC,2445749.645833,29.6633,-93.3933,0082,-12.96,-13.90,19.0000,223.0000
1984-02-19 04:00:00 UTC,2445749.666667,29.6633,-93.3933,0082,-14.77,-11.96,19.0000,231.0000
1984-02-19 04:30:00 UTC,2445749.687500,29.6633,-93.3933,0082,-15.59,-9.00,18.0000,240.0000
1984-02-19 05:00:00 UTC,2445749.708333,29.6633,-93.3933,0082,-15.41,-7.18,17.0000,245.0000
1984-02-19 05:30:00 UTC,2445749.729167,29.6633,-93.3933,0082,-15.76,-6.37,17.0000,248.0000
1984-02-19 06:00:00 UTC,2445749.750000,29.6633,-93.3933,0082,-14.00,-5.38,15.0000,249.0000
1984-02-19 06:30:00 UTC,2445749.770833,29.6633,-93.3933,0082,-12.98,-5.24,14.0000,248.0000
1984-02-19 07:00:00 UTC,2445749.791667,29.6633,-93.3933,0082,-12.22,-4.45,13.0000,250.0000